Torna al catalogo

SWC-1

LostMeteoHEO
NORAD 68540·PAYLOAD·🇸🇦 Saudi Arabia

Lanciato Apr 1, 2026 da Cape Canaveral Space Force Station

Loading…

Prossimi Passaggi (prossime 24 ore)

TLE

ObsoletoSource: Space-Track

Epoca: Apr 17, 2026, 12:14 UTC

1 68540U 26069C   26107.51011483 -.00000351  00000-0  00000-0 0  9995
2 68540  28.3533 357.7706 8357664  80.9928 279.0715  1.01840683   168

Traccia SWC-1 in tempo reale con AllMySat

Download on the App Store